Regional Weather Roundup
Issued by NWS

Home | Current Version | Previous Version | Graphics & Text | Print | Product List | Glossary On
Versions: 1 2 3 4 5 6 7 8 9 10 11 12 13 14 15 16 17 18 19 20 21 22 23 24 25 26 27 28 29 30 31 32 33 34 35 36 37 38 39 40 41 42 43 44 45 46 47 48 49 50
000
ASUS43 KFSD 011010
RWRSD

WEATHER ROUNDUP FOR SOUTH DAKOTA
NATIONAL WEATHER SERVICE SIOUX FALLS SD
500 AM CDT FRI AUG 01 2014

NOTE: "FAIR" INDICATES FEW OR NO CLOUDS BELOW 12,000 FEET WITH NO
SIGNIFICANT WEATHER AND/OR OBSTRUCTIONS TO VISIBILITY.


SDZ001>005-009-010-012>017-011100-
NORTHWEST AND NORTH CENTRAL SOUTH DAKOTA

CITY           SKY/WX    TMP DP  RH WIND       PRES   REMARKS
BUFFALO          N/A     62  47  57 NE6       30.01S
FAITH            N/A     60  54  80 S12       30.05S
MOBRIDGE       PTCLDY    61  57  87 SE7       30.05R
$$

SDZ012>016-024>037-041>051-057-063-072>074-011100-
SOUTHWEST AND SOUTH CENTRAL SOUTH DAKOTA

CITY           SKY/WX    TMP DP  RH WIND       PRES   REMARKS
RAPID CTY ARPT CLEAR     57  49  74 CALM      30.10F
PIERRE         PTCLDY    63  59  87 SE6       30.04S
CUSTER         PTCLDY    56  43  61 W6        30.26S
ELLSWORTH AFB  CLEAR     63  50  61 SW10      30.10S
PHILIP         CLEAR     57  50  77 CALM      30.05S
PINE RIDGE     CLEAR     53  48  83 CALM      30.13F
WINNER         FAIR      66  62  87 S7        30.07F
$$

SDZ004>011-016>023-039-040-011100-
NORTHEAST SOUTH DAKOTA

CITY           SKY/WX    TMP DP  RH WIND       PRES   REMARKS
ABERDEEN       CLEAR     52  51  97 CALM      30.07R
WATERTOWN      CLEAR     58  55  90 CALM      30.07S
SISSETON         N/A     61  58  90 W3        30.03S
$$

SDZ017-020-022-023-036>040-048>070-011100-
SOUTHEAST SOUTH DAKOTA

CITY           SKY/WX    TMP DP  RH WIND       PRES   REMARKS
SIOUX FALLS    CLEAR     56  54  93 CALM      30.07S
HURON          CLEAR     55  53  93 SE3       30.06S
CHAMBERLAIN    PTCLDY    57  55  94 CALM      30.06S
MITCHELL       CLEAR     58  57  97 CALM      30.07S
YANKTON        MOCLDY    57  55  94 CALM      30.07S VSB 1/4
$$

ABBREVIATIONS USED IN REMARKS
   TC - TEMPERATURE IN CELSIUS
  WCI - WIND CHILL INDEX
   HX - HEAT INDEX
  VSB - VISIBILITY



USA.gov is the U.S. government's official web portal to all federal, state and local government web resources and services.